DELTA 1 DEB, 42652

Orbit data source: Space-Track

DELTA 1 DEB, 42652 is space debris in SSO originally from a launch on Thu, 12 Jun 1975 UTC launched from the Air Force Western Test Range (AFWTR). Debris objects in space refer to the collection of defunct objects orbiting the Earth. Examples of debris include non-operational satellites, rocket bodies, and fragments generated from explosions, collisions, or faulty payload assembly.

Loading next visibility...
DELTA 1 DEB details
Identifier
42652, 1975-052MM
Orbit
SSO
Last TLE update1 day ago
Origin
Flag of USGSFC (US)
ManufacturerUnknown
MissionSpacecraft
Bus & MotorUnknown
MassUnknown
Launch date (UTC)
1975-06-12 (50 years ago)
Launch vehicleUnknown
Launch site
Air Force Western Test Range (AFWTR)
Object type
Payload
Rocket body
Debris
Shape & HBRUnknown
Radar Cross SectionSmall (<0.1 m²)

Expand to show TLE details & history

TLE from 1 day ago
0 DELTA 1 DEB
1 42652U 75052MM  24360.28774399  .00000443  00000-0  97838-3 0  9991
2 42652  99.7087 163.0835 0073206 188.4983 295.1299 13.32842394539458
Epoch: 2024-12-25T06:54Z
Definitive object data (Epoch: 2024-12-25T06:54:21.08Z)
Latitude55.9819°
Longitude159.81867°
Altitude1,122.255 km
Speed7.308 km/s
True Right ascension23h 50m 45s
True Declination55° 49' 48"
Sunlit
Object was in daylight at TLE epoch
Visualization TLE readout
Latitude-42.27868°
Longitude-24.71052°
Altitude1,188.535 km
Speed7.241 km/s
Apparent Right ascension08h 48m 21s
Apparent Declination-83° 46' 51"
Sunlit
Object is in daylight
Visualization observer readout
Local Sidereal Time12:03:20
Azimuth185.754° SSW
Elevation-35.669°
Doppler factor1
Orbital elements
Apogee altitude1,188.375 km
Perigee altitude1,078.397 km
Semi-major axis7,511.523 km
Eccentricity0.0073206
Inclination99.7087°
RAAN163.0835°
Arg. of periapsis188.4983°
True anomaly294.36748°
Mean anomaly295.1299°
Eccentric anomaly294.74899°
Mean motion3.33389 °/min
BSTAR0.00097838
Orbital period107.98 mins
Loading maneuver chart data...
Loading historical data...
Loading historical data...
Loading historical data...
Loading historical data...
Loading historical data...
Loading historical data...
Loading historical data...

DELTA 1 DEB Visibility forecast

Observer location: undefined°, undefined

Span
Click to sort rows by Start time (UTC) header in descending order
Start Az.
Max El. time (UTC)
Max El. Az.
Max El.
End time (UTC)
End Az.
7 mins2024-12-26 22:34:47.517Z57.399° ENE2024-12-26 22:37:47.517Z87.953° E18.022°2024-12-26 22:41:47.517Z128.938° SE
11 mins2024-12-27 00:19:47.517Z8.106° NNE2024-12-27 00:24:47.517Z309.004° NW42.84°2024-12-27 00:30:47.517Z208.202° SW
4 mins2024-12-27 08:57:47.517Z67.076° ENE2024-12-27 08:59:47.517Z49.199° ENE12.652°2024-12-27 09:01:47.517Z31.887° NE
12 mins2024-12-27 10:38:47.517Z151.095° SSE2024-12-27 10:44:47.517Z61.078° ENE43.048°2024-12-27 10:50:47.517Z351.116° N
8 mins2024-12-27 12:27:47.517Z230.291° WSW2024-12-27 12:31:47.517Z270.414° WNW19.752°2024-12-27 12:35:47.517Z308.897° NW
|